IRIDIUM 56 [P]

Last updated on Tue Aug 28 2018 14:42:35 GMT+0000 (Coordinated Universal Time)

1 25170U 98010B 18240.32875221 .02966682 00000-0 55237+0 0 9998 2 25170 86.4062 167.7884 0092037 172.1356 190.0549 14.58145381 74425

Satellite not in orbit